Content
SEND FEEDBACK

Daily
Averages
Monthly
Summary
United States of America

PUT IN BAY, OHIO


Home > North America > United States > Ohio
Elevation: 561 feet     Latitude: 41 39N     Longitude: 082 48W

WEATHER
 
SELECT A DAY
Number of Records: 122,490;   Date Range: 12/10/00 - 7/20/14
 
SHARE

PRINT THIS DATA

[ ← Previous Day ]
WEATHER ALMANAC - FEBRUARY 17, 2013
[ Next Day → ]
[ °C ]   °F
Weather ElementAverageHighLow
Temperature16.9 °F22.8 °F (4:00 pm)11.1 °F (8:00 am)
Dewpoint7.3 °F14.9 °F (4:00 am)3.9 °F (1:00 pm)
Humidity65.7 %90 % (4:00 am)37 % (1:00 pm)
Barometer30.18 in30.26 in (10:00 pm)30.06 in (1:00 am)
Wind Speed4.7 mph9.2 mph (11:00 am)
Weather ElementAverage
Wind DirectionWNW (280 °)

Weather ElementTotal
Precipitation---
Heating Degree Days48.1 (Base 65)
Averaged from 26 records on February 17, 2013
WEATHER CONDITIONS BREAKOUT
WIND DIRECTION BREAKOUT
WEATHER BY HOUR - FEBRUARY 17, 2013
[ °C ]   °F
Local TimeTemperatureDewpointHumidityBarometerVisibilityWind DirectionWind SpeedGust SpeedPrecipitationEventsConditions
1:00 AM16.0 °F11.0 °F73 %30.06 inNW (310°)4.6 mph
2:00 AM15.3 °F11.1 °F84 %30.07 inNW (310°)5.8 mph
3:00 AM17.1 °F13.8 °F87 %30.07 inNNW (330°)6.9 mph
4:00 AM17.4 °F14.9 °F90 %30.09 inNNW (340°)3.5 mph
5:00 AM14.9 °F11.7 °F87 %30.11 inNorth (350°)3.5 mph
6:00 AM11.5 °F8.2 °F87 %30.13 inNNW (330°)2.3 mph
7:00 AM11.8 °F6.6 °F80 %30.15 inNNW (330°)3.5 mph
7:00 AM12.0 °F7.0 °F70 %30.15 inNNW (330°)3.5 mph
8:00 AM11.1 °F5.5 °F78 %30.17 inNNW (330°)5.8 mph
9:00 AM12.7 °F5.4 °F72 %30.19 inNW (310°)6.9 mph
10:00 AM14.4 °F4.3 °F64 %30.20 inNW (310°)6.9 mph
11:00 AM16.7 °F6.1 °F63 %30.21 inWNW (290°)9.2 mph
12:00 PM18.9 °F5.7 °F57 %30.22 inNW (310°)8.1 mph
1:00 PM19.2 °F3.9 °F51 %30.21 inNNW (340°)8.1 mph
1:00 PM19.0 °F4.0 °F37 %30.21 inNNW (340°)8.1 mph
2:00 PM21.0 °F5.2 °F51 %30.20 inNNW (330°)5.8 mph
3:00 PM22.1 °F6.1 °F50 %30.20 inNW (320°)5.8 mph
4:00 PM22.8 °F5.4 °F47 %30.20 inWNW (300°)8.1 mph
5:00 PM22.5 °F5.0 °F47 %30.22 inNNW (330°)5.8 mph
6:00 PM21.0 °F5.2 °F51 %30.23 inNW (310°)4.6 mph
7:00 PM19.2 °F5.7 °F56 %30.24 inWNW (300°)1.2 mph
7:00 PM19.0 °F6.0 °F42 %30.24 inWNW (300°)1.2 mph
8:00 PM17.2 °F8.2 °F68 %30.24 inCalm
9:00 PM16.3 °F8.8 °F72 %30.25 inESE (110°)1.2 mph
10:00 PM16.0 °F8.6 °F73 %30.26 inCalm
11:00 PM15.3 °F7.5 °F71 %30.25 inESE (120°)1.2 mph
Hourly data recorded from CXHA, located miles away from Put In Bay, Ohio







STORIES FROM OUR PARTNERS